Weather in Arkhangel'skoe

Russia / Voronezh Oblast     51°26′37″N   40°55′54″E
temp.,
°C
wind,
m/s
gust,
m/s
humid.,
%
clouds,
%
prec.,
mm/h
press.,
hPa
HPBL,
m
27 february, sat
sat2700:00+2wnw61198100 0.1 1008349
03:00+1w61295100 0.1 1008384
06:00+1w61395100 0.0 1007537
09:00+1wnw71392100 0.0 1007600
12:00+1w71397100 0.0 1006581
15:00+1wnw7149499 0.1 1007659
18:000nnw8139291 0.2 1009836
21:00−6nnw6118467 0.2 1011500
28 february, sun
sun2800:00−7nnw59850 0.0 1013451
03:00−8nnw48870 0.0 1014442
06:00−8nnw37900 0.0 1015373
09:00−7nw368912 0.0 1016400
12:00−5nw358499 0.0 1016537
15:00−4nw468296 0.1 1016558
18:00−4nnw249296 0.0 1017179
21:00−5nnw229581 0.0 101937
1 march, mon
mon100:00−6nne239559 0.0 102066
03:00−7nne239568 0.0 1021106
06:00−8nne239339 0.0 102290
09:00−7n238922 0.0 1025157
12:00−4n238057 0.0 1025499
15:00−3nw347878 0.0 1026624
18:00−3w248499 0.0 1025126
21:00−3wsw378696 0.0 1026278
2 march, tue
tue200:00−2wsw4985100 0.0 1024507
03:00−2wsw61384100 0.0 1021490
06:00−2wsw71492100 0.0 1018590
09:000wsw81494100 0.4 1015641
12:00+1wnw71397100 1.0 1013666
15:00+1nw61197100 1.2 1012622
18:000nw5128993 0.1 1012425
21:00−1nw6139049 0.1 1014441
3 march, wed
wed300:00−1nw6139489 0.1 1014597
03:00−1nw6139692 0.3 1014697
06:00−3nw5119449 0.1 1015426
09:00−2nw7119070 0.1 1016821
12:00−1nw71084100 0.2 1017970
15:00−1nw6107883 0.2 1018842
18:00−1nw6108592 0.1 1018817
21:00−2nw598494 0.1 1020660